ARIANE 44LP DEB, 25540

Orbit data source: Space-Track

ARIANE 44LP DEB, 25540 is space debris in HEO originally from a launch on Sun, 11 Dec 1988 UTC launched from the French Guiana (FRGUI). Debris objects in space refer to the collection of defunct objects orbiting the Earth. Examples of debris include non-operational satellites, rocket bodies, and fragments generated from explosions, collisions, or faulty payload assembly.

Loading next visibility...
Identifier
25540, 1988-109G
Orbit
HEO
Country
Flag of FRFR
Related business
Manufacturer
Unknown
Mission
Spacecraft
Bus & Motor
Unknown
Mass
Unknown
Launch date (UTC)
1988-12-11 (38 years ago)
Launch vehicle
Unknown
Launch site
French Guiana (FRGUI)
Object type
Payload
Rocket body
Debris
Shape & HBR
Unknown shape, 1.1 m
Radar Cross Section
Large (>1 m²)

Expand to show TLE details & history
Last TLE update: 3 months ago

TLE from 3 months ago
0 ARIANE 44LP DEB
1 25540U 88109G   26067.89869615  .00006645  00000-0  57241-2 0  9997
2 25540   6.8969 351.2972 6575685 181.1438 175.8287  3.15098337272078
Epoch: 2026-03-08T21:34Z
TLE epoch observation values (Epoch: 2026-03-08T21:34:07.347Z)
Latitude
-0.00003°
Longitude
-138.82878°
Altitude
26,195.856 km
Speed
2.048 km/s
True Right ascension
23h 25m 12s
True Declination
0° 00' 00"
Sunlit
Object was in daylight at epoch
Visualization orbit readout
Latitude
Unknown
Longitude
Unknown
Altitude
Unknown
Speed
Unknown
Apparent Right ascension
Unknown
Apparent Declination
Unknown
Sunlit
N/A
Visualization observer readout
Local Sidereal Time
01:06:58
Azimuth
Unknown
Elevation
Unknown
Doppler factor
Unknown
Orbital elements
Apogee altitude
26,207.245 km
Perigee altitude
353.567 km
Semi-major axis
19,658.543 km
Eccentricity
0.65757
Inclination
6.8969°
RAAN
351.2972°
Arg. of periapsis
181.1438°
True anomaly
178.85591°
Mean anomaly
175.8287°
Eccentric anomaly
177.48316°
Mean motion
0.78744 °/min
Orbital period
457.18 mins
BSTAR
0.0057241
Loading maneuver chart data...
Computing Atmospheric mass density...
Loading historical data...
Loading historical data...
Loading historical data...
Loading historical data...
Loading historical data...
Loading historical data...
Loading historical data...

Documentation

Showing up to 5 results
|